Flora, IL

10:20 PM CDT on September 21, 2017 (GMT -0500)
Flora Municipal

Weather History for KFOA - November, 2012

Change the Weather History Date:

Monday, November 19, 2012

  Actual Average (KSLO) Record (KSLO)
Temperature  
Mean Temperature 46 °F -  
Max Temperature 61 °F 54 °F 73 °F (1991)
Min Temperature 32 °F 36 °F 20 °F (1959)
Degree Days  
Heating Degree Days 18    
Moisture  
Dew Point 39 °F    
Average Humidity 76    
Maximum Humidity 100    
Minimum Humidity 45    
Precipitation  
Precipitation 0.00 in - - ()
Sea Level Pressure  
Sea Level Pressure 30.26 in    
Wind  
Wind Speed 2 mph (South)    
Max Wind Speed 10 mph    
Max Gust Speed -    
Visibility 9 miles    
Events      
Averages and records for this station are not official NWS values.
T = Trace of Precipitation, MM = Missing Value Source: NWS Daily Summary

Daily Weather History Graph

Daily Weather History Graph

Search for Another Location

Airport or City:

Trip Planner

Search our weather history database for the weather conditions in past years. The results will help you decide how hot, cold, wet, or windy it might be!

Date:

Astronomy

Nov. 19, 2012 Rise Set
Actual Time 6:40 AM CST 4:37 PM CST
Civil Twilight 6:12 AM CST 5:06 PM CST
Nautical Twilight 5:39 AM CST 5:38 PM CST
Astronomical Twilight 5:08 AM CST 6:10 PM CST
Moon 11:45 AM CST (11/19) 11:02 PM CST (11/19)
Length of Visible Light 10h 53m
Length of Day
9h 56m
Waxing Crescent, 41% of the Moon is Illuminated
Nov 19
Waxing Crescent
Nov 20
First Quarter
Nov 28
Full
Dec 6
Last Quarter
Dec 13
New

Hourly Weather History & Observations

Time (CST) Temp. Windchill Dew Point Humidity Pressure Visibility Wind Dir Wind Speed Gust Speed Precip Events Conditions
12:15 AM 38.5 °F - 37.0 °F 95% 30.34 in 10.0 mi Calm Calm - N/A   Clear
12:35 AM 37.8 °F - 36.3 °F 95% 30.34 in 7.0 mi Calm Calm - N/A   Clear
12:55 AM 35.2 °F - 34.0 °F 95% 30.33 in 7.0 mi Calm Calm - N/A   Clear
1:15 AM 35.2 °F - 34.0 °F 95% 30.33 in 7.0 mi Calm Calm - N/A   Clear
1:35 AM 37.6 °F - 36.7 °F 97% 30.33 in 7.0 mi Calm Calm - N/A   Clear
1:55 AM 38.7 °F - 37.4 °F 95% 30.33 in 7.0 mi Calm Calm - N/A   Clear
2:15 AM 37.4 °F - 35.6 °F 93% 30.32 in 7.0 mi Calm Calm - N/A   Clear
2:35 AM 35.2 °F - 34.5 °F 97% 30.32 in 7.0 mi Calm Calm - N/A   Clear
2:55 AM 33.8 °F - 33.4 °F 99% 30.32 in 7.0 mi Calm Calm - N/A   Clear
3:15 AM 35.2 °F - 34.9 °F 99% 30.32 in 5.0 mi Calm Calm - N/A   Clear
3:35 AM 33.8 °F - 33.8 °F 100% 30.32 in 5.0 mi Calm Calm - N/A   Clear
3:55 AM 36.1 °F - 35.2 °F 97% 30.32 in 7.0 mi Calm Calm - N/A   Clear
4:15 AM 34.7 °F - 33.4 °F 95% 30.32 in 7.0 mi Calm Calm - N/A   Clear
4:35 AM 32.9 °F - 32.4 °F 98% 30.31 in 7.0 mi Calm Calm - N/A   Clear
4:55 AM 33.8 °F - 33.4 °F 99% 30.31 in 5.0 mi Calm Calm - N/A   Clear
5:15 AM 32.5 °F - 32.0 °F 98% 30.32 in 7.0 mi Calm Calm - N/A   Clear
5:35 AM 34.0 °F - 33.6 °F 99% 30.32 in 5.0 mi Calm Calm - N/A   Clear
5:55 AM 34.2 °F - 33.4 °F 97% 30.31 in 7.0 mi Calm Calm - N/A   Clear
6:15 AM 34.5 °F - 33.6 °F 97% 30.31 in 5.0 mi Calm Calm - N/A   Clear
6:35 AM 33.4 °F - 32.4 °F 96% 30.31 in 7.0 mi Calm Calm - N/A   Clear
6:55 AM 34.3 °F - 33.8 °F 98% 30.31 in 7.0 mi Calm Calm - N/A   Clear
7:15 AM 33.8 °F - 33.8 °F 100% 30.32 in 7.0 mi Calm Calm - N/A   Clear
7:35 AM 35.1 °F - 34.5 °F 98% 30.32 in 7.0 mi Calm Calm - N/A   Clear
7:55 AM 35.8 °F - 34.7 °F 96% 30.32 in 7.0 mi Calm Calm - N/A   Clear
8:15 AM 40.5 °F - 38.3 °F 92% 30.32 in 7.0 mi Calm Calm - N/A   Clear
8:35 AM 43.9 °F - 40.6 °F 88% 30.32 in 7.0 mi Calm Calm - N/A   Clear
9:13 AM 50.0 °F - 41.0 °F 71% 30.32 in 10.0 mi Calm Calm - N/A   Clear
9:35 AM 51.8 °F - 39.9 °F 64% 30.32 in 10.0 mi South 4.6 mph - N/A   Clear
9:55 AM 52.9 °F - 39.7 °F 61% 30.32 in 10.0 mi South 4.6 mph - N/A   Clear
10:15 AM 53.8 °F - 40.5 °F 61% 30.32 in 10.0 mi South 4.6 mph - N/A   Clear
10:35 AM 54.9 °F - 41.4 °F 60% 30.31 in 10.0 mi SSE 4.6 mph - N/A   Clear
10:55 AM 55.4 °F - 42.3 °F 61% 30.30 in 10.0 mi SE 5.8 mph - N/A   Clear
11:15 AM 56.3 °F - 43.5 °F 62% 30.29 in 10.0 mi SSE 5.8 mph - N/A   Clear
11:35 AM 57.2 °F - 41.4 °F 55% 30.27 in 10.0 mi South 8.1 mph - N/A   Clear
11:55 AM 58.1 °F - 40.8 °F 53% 30.27 in 10.0 mi South 5.8 mph - N/A   Clear
12:15 PM 59.9 °F - 39.9 °F 48% 30.26 in 10.0 mi South 8.1 mph - N/A   Clear
12:35 PM 61.5 °F - 39.7 °F 45% 30.25 in 10.0 mi SSW 10.4 mph - N/A   Clear
12:55 PM 61.7 °F - 39.9 °F 45% 30.24 in 10.0 mi SSW 9.2 mph - N/A   Clear
1:15 PM 61.5 °F - 40.3 °F 46% 30.24 in 10.0 mi SSW 8.1 mph - N/A   Clear
1:35 PM 60.6 °F - 40.5 °F 47% 30.24 in 10.0 mi South 5.8 mph - N/A   Clear
1:55 PM 60.8 °F - 40.1 °F 46% 30.22 in 10.0 mi South 6.9 mph - N/A   Clear
2:15 PM 60.8 °F - 40.3 °F 47% 30.22 in 10.0 mi South 4.6 mph - N/A   Clear
2:35 PM 61.0 °F - 40.8 °F 47% 30.22 in 10.0 mi South 5.8 mph - N/A   Clear
2:55 PM 60.8 °F - 39.9 °F 46% 30.21 in 10.0 mi South 4.6 mph - N/A   Clear
3:15 PM 60.3 °F - 39.4 °F 46% 30.21 in 10.0 mi South 5.8 mph - N/A   Scattered Clouds
3:35 PM 59.7 °F - 41.2 °F 50% 30.21 in 10.0 mi South 3.5 mph - N/A   Clear
3:55 PM 58.6 °F - 40.6 °F 51% 30.21 in 10.0 mi SSW 4.6 mph - N/A   Clear
4:15 PM 56.3 °F - 40.8 °F 56% 30.21 in 10.0 mi Calm Calm - N/A   Mostly Cloudy
4:35 PM 56.3 °F - 41.0 °F 57% 30.21 in 10.0 mi Calm Calm - N/A   Overcast
4:55 PM 56.5 °F - 41.2 °F 57% 30.20 in 10.0 mi Calm Calm - N/A   Mostly Cloudy
5:15 PM 53.6 °F - 43.7 °F 69% 30.21 in 10.0 mi Calm Calm - N/A   Mostly Cloudy
5:35 PM 53.4 °F - 42.8 °F 67% 30.21 in 10.0 mi Calm Calm - N/A   Mostly Cloudy
5:55 PM 52.9 °F - 43.0 °F 69% 30.20 in 10.0 mi Calm Calm - N/A   Scattered Clouds
6:15 PM 49.5 °F - 42.3 °F 76% 30.20 in 10.0 mi Calm Calm - N/A   Scattered Clouds
6:35 PM 49.3 °F - 41.5 °F 75% 30.19 in 10.0 mi Calm Calm - N/A   Mostly Cloudy
6:55 PM 50.4 °F - 41.9 °F 73% 30.19 in 10.0 mi SE 3.5 mph - N/A   Mostly Cloudy
7:15 PM 49.3 °F - 41.9 °F 76% 30.19 in 10.0 mi SSE 4.6 mph - N/A   Overcast
7:35 PM 51.3 °F - 42.4 °F 72% 30.18 in 10.0 mi SSE 5.8 mph - N/A   Overcast
7:55 PM 51.3 °F - 42.1 °F 71% 30.18 in 10.0 mi SSE 6.9 mph - N/A   Overcast
8:15 PM 50.5 °F - 41.2 °F 70% 30.18 in 10.0 mi SSE 4.6 mph - N/A   Scattered Clouds
8:35 PM 48.4 °F - 40.8 °F 75% 30.19 in 10.0 mi Calm Calm - N/A   Clear
8:55 PM 46.6 °F - 39.7 °F 77% 30.18 in 10.0 mi South 3.5 mph - N/A   Clear
9:15 PM 46.4 °F 44.3 °F 39.7 °F 78% 30.18 in 10.0 mi SE 4.6 mph - N/A   Clear
9:35 PM 43.7 °F - 38.3 °F 81% 30.18 in 10.0 mi Calm Calm - N/A   Clear
9:55 PM 45.0 °F - 39.4 °F 81% 30.18 in 10.0 mi Calm Calm - N/A   Clear
10:15 PM 47.3 °F - 40.1 °F 76% 30.17 in 10.0 mi Calm Calm - N/A   Clear
10:35 PM 42.1 °F - 37.6 °F 84% 30.17 in 10.0 mi Calm Calm - N/A   Clear
10:55 PM 42.6 °F 40.9 °F 38.3 °F 85% 30.16 in 10.0 mi SSE 3.5 mph - N/A   Scattered Clouds
11:15 PM 43.7 °F 41.1 °F 39.4 °F 85% 30.16 in 10.0 mi South 4.6 mph - N/A   Mostly Cloudy
11:35 PM 44.4 °F - 40.3 °F 85% 30.15 in 10.0 mi Calm Calm - N/A   Mostly Cloudy
11:55 PM 47.7 °F - 41.4 °F 79% 30.15 in 10.0 mi Calm Calm - N/A   Overcast